User: anonymous   Login
Location: *
(46.4000°N, 12.6667°E)
Time: 13:07:36
(UTC+00:00)
Language:

Cosmos 1076 Rocket - Orbit

View from above orbital plane
View from above orbital plane
View from above satellite
View from above satellite

Ground track
Ground track

The orbit data is extracted from the following two-line orbital elements,

1 11267U 79011B   20191.58864670 +.00000066 +00000-0 +42406-5 0  9995
2 11267 082.5248 253.4719 0018403 108.5524 251.7695 14.88973901220683
Epoch (UTC): 09 July 2020 14:07:39
Eccentricity: 0.0018403
inclination: 82.5248°
perigee height: 588 km
apogee height: 614 km
right ascension of ascending node: 253.4719°
argument of perigee: 108.5524°
revolutions per day: 14.88973901
mean anomaly at epoch: 251.7695°
orbit number at epoch: 22068

The dashed part of the orbit path shows where the satellite is in the earth's shadow,  

DLR